Regional Weather Roundup
Issued by NWS Raleigh/Durham, NC

Home | Current Version | Previous Version | Text Only | Print | Product List | Glossary On
Versions: 1 2 3 4 5 6 7 8 9 10 11 12 13 14 15 16 17 18 19 20 21 22 23 24 25 26 27 28 29 30 31 32 33 34 35 36 37 38 39 40 41 42 43 44 45 46 47 48 49 50
000
ASUS42 KRAH 261010
RWRRAH
NORTH CAROLINA WEATHER ROUNDUP
NATIONAL WEATHER SERVICE RALEIGH NC
600 AM EDT TUE SEP 26 2017

NOTE: "FAIR" INDICATES FEW OR NO CLOUDS BELOW 12,000 FEET WITH NO
SIGNIFICANT WEATHER AND/OR OBSTRUCTIONS TO VISIBILITY.

NCZ001-053-055-056-065-067-261100-
WESTERN NORTH CAROLINA

CITY           SKY/WX    TMP DP  RH WIND       PRES   REMARKS
ASHEVILLE      CLEAR     60  57  89 NW6       30.06S
JEFFERSON      MOCLDY    61  60  94 CALM      30.09S
MORGANTON      PTCLDY    60  60 100 CALM      30.04S
HICKORY        PTCLDY    64  63  96 CALM      30.00R
RUTHERFORDTON  CLEAR     66  64  95 N3        30.00S
MOUNT AIRY     CLEAR     65  60  86 CALM      30.02S
BOONE          CLEAR     56  56 100 CALM      30.10F
$$

NCZ021-022-025-041-071-084-088-261100-
CENTRAL NORTH CAROLINA

CITY           SKY/WX    TMP DP  RH WIND       PRES   REMARKS
CHARLOTTE      PTCLDY    68  66  93 N8        29.96S
GREENSBORO     CLEAR     67  66  97 N5        29.96S
WINSTON-SALEM  CLEAR     67  64  90 N6        29.98S
RALEIGH-DURHAM CLOUDY    69  68  96 N7        29.92S
FORT BRAGG     CLOUDY    71  67  89 N6        29.88S
FAYETTEVILLE   CLOUDY    72  70  93 N12       29.87S
BURLINGTON     CLEAR     68  65  90 N6        29.95R
LAURINBURG     CLOUDY    70  67  90 N6        29.89R
$$

NCZ011-015-027-028-043-044-047-080-103-261100-
NORTHEASTERN NORTH CAROLINA

CITY           SKY/WX    TMP DP  RH WIND       PRES   REMARKS
ROCKY MT-WILSO CLOUDY    71  70  96 N10       29.89R
GREENVILLE     CLOUDY    72  72 100 N9        29.88S FOG
WASHINGTON     CLOUDY    72  71  96 N14       29.83S
ELIZABETH CITY CLOUDY    73  73 100 N16       29.84S FOG
MANTEO         CLOUDY    73  72  99 NE16G25   29.80S FOG
CAPE HATTERAS  CLOUDY    77  76  96 NE17G36   29.70S
$$

NCZ078-087-090-091-093-098-101-261100-
SOUTHEASTERN NORTH CAROLINA

CITY           SKY/WX    TMP DP  RH WIND       PRES   REMARKS
LUMBERTON      NOT AVBL
GOLDSBORO      CLOUDY    72  72 100 N8        29.85R
KINSTON        CLOUDY    72  70  94 N12       29.85S
KENANSVILLE    CLOUDY    70  70 100 N8        29.85S
NEW BERN       CLOUDY    74  73  97 N15G21    29.81S
CHERRY POINT   CLOUDY    75  74  96 N18       29.78F
BEAUFORT       CLOUDY    75  74  96 N18G30    29.74F
JACKSONVILLE   CLOUDY    73  73 100 N12       29.79S
WILMINGTON     CLOUDY    73  70  90 N13G21    29.81R
$$




USA.gov is the U.S. government's official web portal to all federal, state and local government web resources and services.